When you browse on this site, cookies collect data to enhance your experience and personalize the content and advertising you see.
Visit our Privacy Policy to learn more. By continuing to use the site, you agree to this use of cookies and data.
  • In Österreich
  • Länderverzeichnis
  • Für 7 Tage
  • Wassertemperatur
  • Satellitenkarten
  • Wetterkarte
  • News
  • Widgets
  • user-avatar
    Anmelden

    Stündliche Wetter Tibissa

    Heute, 16 Juli, Dienstag

    Zeit Temperatur Niederschläge Wind Luftdruck Luftfeuchtigkeit
    00:00 +25°C° 0 mm 2 m/S 684 mmHg 52%
    01:00 +25°C° 0 mm 2 m/S 684 mmHg 52%
    02:00 +24°C° 0 mm 2 m/S 684 mmHg 55%
    03:00 +23°C° 0 mm 2 m/S 683 mmHg 57%
    04:00 +21°C° 0 mm 2 m/S 683 mmHg 60%
    05:00 +21°C° 0 mm 3 m/S 683 mmHg 59%
    06:00 +21°C° 0 mm 4 m/S 684 mmHg 58%
    07:00 +21°C° 0 mm 5 m/S 684 mmHg 54%
    08:00 +22°C° 0 mm 6 m/S 685 mmHg 48%
    09:00 +24°C° 0 mm 7 m/S 685 mmHg 41%
    10:00 +26°C° 0 mm 8 m/S 685 mmHg 35%
    11:00 +27°C° 0 mm 9 m/S 686 mmHg 32%
    12:00 +28°C° 0 mm 9 m/S 686 mmHg 29%
    13:00 +29°C° 0 mm 9 m/S 686 mmHg 26%
    14:00 +29°C° 0 mm 9 m/S 686 mmHg 26%
    15:00 +29°C° 0 mm 9 m/S 686 mmHg 27%
    16:00 +31°C° 0 mm 9 m/S 685 mmHg 27%
    17:00 +28°C° 0 mm 9 m/S 685 mmHg 31%
    18:00 +27°C° 0 mm 8 m/S 685 mmHg 36%
    19:00 +26°C° 0 mm 8 m/S 685 mmHg 40%
    20:00 +23°C° 0 mm 6 m/S 685 mmHg 45%
    21:00 +22°C° 0 mm 5 m/S 686 mmHg 50%
    22:00 +21°C° 0 mm 3 m/S 686 mmHg 54%
    23:00 +20°C° 0 mm 3 m/S 686 mmHg 56%

    Morgen, 17 Juli, Mittwoch

    Zeit Temperatur Niederschläge Wind Luftdruck Luftfeuchtigkeit
    00:00 +19°C° 0 mm 2 m/S 685 mmHg 58%
    01:00 +19°C° 0 mm 2 m/S 685 mmHg 60%
    02:00 +18°C° 0 mm 2 m/S 685 mmHg 61%
    03:00 +18°C° 0 mm 2 m/S 684 mmHg 61%
    04:00 +18°C° 0 mm 1 m/S 684 mmHg 62%
    05:00 +19°C° 0 mm 1 m/S 684 mmHg 58%
    06:00 +20°C° 0 mm 1 m/S 685 mmHg 54%
    07:00 +21°C° 0 mm 1 m/S 685 mmHg 50%
    08:00 +23°C° 0 mm 1 m/S 686 mmHg 40%
    09:00 +25°C° 0 mm 2 m/S 686 mmHg 30%
    10:00 +27°C° 0 mm 2 m/S 687 mmHg 20%
    11:00 +29°C° 0 mm 3 m/S 687 mmHg 17%
    12:00 +30°C° 0 mm 4 m/S 687 mmHg 15%
    13:00 +33°C° 0 mm 4 m/S 687 mmHg 12%
    14:00 +33°C° 0 mm 5 m/S 687 mmHg 11%
    15:00 +34°C° 0 mm 5 m/S 686 mmHg 11%
    16:00 +35°C° 0 mm 5 m/S 686 mmHg 10%
    17:00 +34°C° 0 mm 5 m/S 686 mmHg 11%
    18:00 +33°C° 0 mm 5 m/S 686 mmHg 12%
    19:00 +33°C° 0 mm 5 m/S 686 mmHg 13%
    20:00 +30°C° 0 mm 4 m/S 686 mmHg 17%
    21:00 +28°C° 0 mm 3 m/S 686 mmHg 20%
    22:00 +27°C° 0 mm 1 m/S 686 mmHg 23%
    23:00 +26°C° 0 mm 1 m/S 685 mmHg 27%

    übermorgen, 18 Juli, Donnerstag

    Zeit Temperatur Niederschläge Wind Luftdruck Luftfeuchtigkeit
    00:00 +25°C° 0 mm 1 m/S 685 mmHg 31%
    01:00 +25°C° 0 mm 1 m/S 685 mmHg 34%
    02:00 +25°C° 0 mm 1 m/S 684 mmHg 35%
    03:00 +25°C° 0 mm 2 m/S 684 mmHg 35%
    04:00 +24°C° 0 mm 2 m/S 684 mmHg 36%
    05:00 +25°C° 0 mm 3 m/S 684 mmHg 36%
    06:00 +26°C° 0 mm 3 m/S 684 mmHg 35%
    07:00 +26°C° 0 mm 4 m/S 684 mmHg 35%
    08:00 +28°C° 0.1 mm 4 m/S 685 mmHg 33%
    09:00 +29°C° 0.1 mm 5 m/S 685 mmHg 32%
    10:00 +30°C° 0.1 mm 5 m/S 686 mmHg 30%
    11:00 +32°C° 0 mm 5 m/S 686 mmHg 29%
    12:00 +32°C° 0 mm 5 m/S 686 mmHg 28%
    13:00 +33°C° 0 mm 5 m/S 685 mmHg 27%
    14:00 +33°C° 0 mm 5 m/S 685 mmHg 26%
    15:00 +33°C° 0 mm 5 m/S 685 mmHg 25%
    16:00 +33°C° 0 mm 5 m/S 685 mmHg 24%
    17:00 +32°C° 0 mm 5 m/S 685 mmHg 27%
    18:00 +30°C° 0 mm 5 m/S 685 mmHg 30%
    19:00 +29°C° 0 mm 6 m/S 686 mmHg 33%
    20:00 +28°C° 0 mm 5 m/S 686 mmHg 33%
    21:00 +27°C° 0 mm 4 m/S 686 mmHg 34%
    22:00 +25°C° 0 mm 3 m/S 686 mmHg 34%
    23:00 +25°C° 0 mm 2 m/S 686 mmHg 35%

    19 Juli, Freitag

    Zeit Temperatur Niederschläge Wind Luftdruck Luftfeuchtigkeit
    00:00 +24°C° 0 mm 2 m/S 686 mmHg 36%
    01:00 +23°C° 0 mm 1 m/S 686 mmHg 38%
    02:00 +23°C° 0 mm 1 m/S 685 mmHg 40%
    03:00 +22°C° 0 mm 1 m/S 685 mmHg 42%
    04:00 +19°C° 0 mm 0 m/S 685 mmHg 44%
    05:00 +20°C° 0 mm 0 m/S 685 mmHg 41%
    06:00 +21°C° 0 mm 0 m/S 685 mmHg 38%
    07:00 +22°C° 0 mm 0 m/S 686 mmHg 36%
    08:00 +24°C° 0 mm 0 m/S 686 mmHg 32%
    09:00 +26°C° 0 mm 0 m/S 687 mmHg 29%
    10:00 +29°C° 0 mm 1 m/S 688 mmHg 26%
    11:00 +31°C° 0 mm 1 m/S 688 mmHg 24%
    12:00 +32°C° 0 mm 2 m/S 688 mmHg 22%
    13:00 +34°C° 0 mm 2 m/S 688 mmHg 20%
    14:00 +34°C° 0 mm 3 m/S 687 mmHg 20%
    15:00 +34°C° 0 mm 3 m/S 687 mmHg 21%
    16:00 +35°C° 0 mm 3 m/S 686 mmHg 21%
    17:00 +34°C° 0 mm 3 m/S 686 mmHg 23%
    18:00 +34°C° 0 mm 3 m/S 687 mmHg 24%
    19:00 +33°C° 0 mm 3 m/S 687 mmHg 26%
    20:00 +31°C° 0 mm 3 m/S 687 mmHg 29%
    21:00 +30°C° 0 mm 3 m/S 687 mmHg 32%
    22:00 +29°C° 0 mm 3 m/S 687 mmHg 36%
    23:00 +28°C° 0 mm 3 m/S 687 mmHg 39%

    20 Juli, Samstag

    Zeit Temperatur Niederschläge Wind Luftdruck Luftfeuchtigkeit
    00:00 +27°C° 0 mm 2 m/S 686 mmHg 42%
    01:00 +26°C° 0 mm 2 m/S 686 mmHg 46%
    02:00 +26°C° 0 mm 2 m/S 686 mmHg 47%
    03:00 +25°C° 0 mm 2 m/S 686 mmHg 49%
    04:00 +25°C° 0 mm 2 m/S 685 mmHg 51%
    05:00 +25°C° 0 mm 2 m/S 686 mmHg 49%
    06:00 +26°C° 0 mm 2 m/S 686 mmHg 46%
    07:00 +27°C° 0 mm 3 m/S 686 mmHg 44%
    08:00 +29°C° 0 mm 3 m/S 687 mmHg 38%
    09:00 +32°C° 0 mm 4 m/S 687 mmHg 33%
    10:00 +34°C° 0 mm 5 m/S 688 mmHg 28%
    11:00 +34°C° 0 mm 5 m/S 688 mmHg 26%
    12:00 +35°C° 0 mm 5 m/S 688 mmHg 25%
    13:00 +36°C° 0 mm 6 m/S 688 mmHg 23%
    14:00 +36°C° 0.1 mm 6 m/S 687 mmHg 24%
    15:00 +36°C° 0.1 mm 6 m/S 687 mmHg 25%
    16:00 +36°C° 0.1 mm 7 m/S 686 mmHg 25%
    17:00 +33°C° 0.4 mm 7 m/S 686 mmHg 31%
    18:00 +30°C° 0.4 mm 7 m/S 686 mmHg 37%
    19:00 +28°C° 0.4 mm 8 m/S 686 mmHg 43%
    20:00 +28°C° 0 mm 6 m/S 686 mmHg 41%
    21:00 +29°C° 0 mm 4 m/S 686 mmHg 39%
    22:00 +29°C° 0 mm 2 m/S 687 mmHg 37%
    23:00 +28°C° 0 mm 2 m/S 686 mmHg 37%

    21 Juli, Sonntag

    Zeit Temperatur Niederschläge Wind Luftdruck Luftfeuchtigkeit
    00:00 +28°C° 0 mm 2 m/S 686 mmHg 38%
    01:00 +28°C° 0 mm 2 m/S 686 mmHg 38%
    02:00 +27°C° 0 mm 2 m/S 686 mmHg 39%
    03:00 +27°C° 0 mm 2 m/S 686 mmHg 40%
    04:00 +26°C° 0 mm 1 m/S 685 mmHg 41%
    05:00 +27°C° 0 mm 1 m/S 686 mmHg 39%
    06:00 +28°C° 0 mm 1 m/S 686 mmHg 37%
    07:00 +29°C° 0 mm 1 m/S 687 mmHg 35%
    08:00 +30°C° 0 mm 2 m/S 687 mmHg 32%
    09:00 +32°C° 0 mm 2 m/S 688 mmHg 29%
    10:00 +34°C° 0 mm 3 m/S 688 mmHg 25%
    11:00 +35°C° 0 mm 4 m/S 688 mmHg 22%
    12:00 +36°C° 0 mm 4 m/S 688 mmHg 20%
    13:00 +37°C° 0 mm 5 m/S 688 mmHg 17%
    14:00 +37°C° 0 mm 5 m/S 688 mmHg 16%
    15:00 +39°C° 0 mm 5 m/S 688 mmHg 15%
    16:00 +39°C° 0 mm 5 m/S 688 mmHg 15%
    17:00 +37°C° 0 mm 5 m/S 688 mmHg 16%
    18:00 +36°C° 0 mm 5 m/S 688 mmHg 17%
    19:00 +36°C° 0 mm 5 m/S 688 mmHg 18%
    20:00 +33°C° 0 mm 5 m/S 688 mmHg 28%
    21:00 +30°C° 0 mm 5 m/S 688 mmHg 37%
    22:00 +28°C° 0 mm 5 m/S 688 mmHg 47%
    23:00 +27°C° 0 mm 4 m/S 688 mmHg 49%
    Mehr zeigen